DW8266 Weather Reports


Display with metric or nautical units.
time (UTC)temp
F
wind
direction
speed
MPH
gust
MPH
rain 1hr
in
rain 24hr
in
rain mn
in
humidity
%
barometer
mb
20260906203103 82 159 0.0 5.0 0.00 0.00 0.00 91 1013.0
20260906201603 82 153 1.0 2.0 0.00 0.00 0.00 93 1012.9
20260906201503 82 153 1.0 3.0 0.00 0.00 0.00 93 1012.9
20260906200107 80 154 0.0 3.0 0.00 0.00 0.00 93 1012.9
20260906194557 79 135 0.0 1.0 0.00 0.00 0.00 93 1013.3
20260906193059 79 135 0.0 0.0 0.00 0.00 0.00 92 1013.9
20260906191559 79 135 0.0 2.0 0.00 0.00 0.00 92 1014.1
20260906190105 79 94 0.0 4.0 0.00 0.00 0.00 91 1014.3
20260906184625 80 207 0.0 3.0 0.00 0.00 0.00 91 1014.9
20260906183057 81 205 6.0 13.0 0.00 0.00 0.00 89 1014.6
20260906183004 81 207 5.0 13.0 0.00 0.00 0.00 89 1014.6
20260906181557 84 121 7.0 11.0 0.00 0.00 0.00 86 1014.3
20260906180057 85 290 0.0 0.0 0.00 0.00 0.00 88 1013.9
20260906174600 84 290 0.0 0.0 0.00 0.00 0.00 91 1013.9
20260906173108 83 290 0.0 0.0 0.00 0.00 0.00 93 1013.7
20260906171600 82 290 0.0 0.0 0.00 0.00 0.00 92 1014.2
20260906170110 80 290 0.0 3.0 0.00 0.00 0.00 91 1014.4
20260906170002 80 290 0.0 3.0 0.00 0.00 0.00 91 1014.4
20260906164601 80 311 2.0 8.0 0.00 0.00 0.00 88 1014.3
20260906163100 86 295 6.0 11.0 0.00 0.00 0.00 81 1014.7
20260906163002 86 288 3.0 11.0 0.00 0.00 0.00 79 1014.7
20260906161559 91 81 2.0 5.0 0.00 0.00 0.00 75 1014.3
20260906160059 91 224 0.0 6.0 0.00 0.00 0.00 79 1014.2
20260906160001 91 224 2.0 6.0 0.00 0.00 0.00 79 1014.2
20260906154559 90 177 1.0 3.0 0.00 0.00 0.00 80 1014.1
20260906153100 88 177 0.0 2.0 0.00 0.00 0.00 84 1014.5
20260906151559 87 178 1.0 2.0 0.00 0.00 0.00 87 1014.4
20260906150100 86 178 1.0 2.0 0.00 0.00 0.00 87 1014.3
20260906150001 86 178 0.0 2.0 0.00 0.00 0.00 87 1014.3
20260906144559 86 178 0.0 2.0 0.00 0.00 0.00 87 1014.2
20260906143059 86 178 0.0 2.0 0.00 0.00 0.00 88 1014.2
20260906141606 86 178 0.0 2.0 0.00 0.00 0.00 88 1014.2
20260906140107 86 178 0.0 0.0 0.00 0.00 0.00 88 1014.2
20260906140001 86 178 0.0 0.0 0.00 0.00 0.00 88 1014.2
20260906134622 85 178 0.0 0.0 0.00 0.00 0.00 89 1014.0
20260906134504 85 178 0.0 0.0 0.00 0.00 0.00 89 1014.0
20260906133100 84 178 0.0 0.0 0.00 0.00 0.00 90 1014.1
20260906131601 83 178 0.0 0.0 0.00 0.00 0.00 92 1013.9
20260906130145 82 178 0.0 0.0 0.00 0.00 0.00 92 1013.8
20260906124608 81 178 0.0 0.0 0.00 0.00 0.00 92 1013.7
20260906123102 81 178 0.0 0.0 0.00 0.00 0.00 92 1013.3
20260906121608 81 178 0.0 0.0 0.00 0.00 0.00 92 1013.0
20260906120110 82 178 0.0 0.0 0.00 0.00 0.00 92 1012.7
20260906120004 82 178 0.0 0.0 0.00 0.00 0.00 92 1012.7
20260906114602 82 178 0.0 0.0 0.00 0.00 0.00 91 1012.5
20260906113105 82 178 0.0 0.0 0.00 0.00 0.00 91 1012.4
20260906111559 82 178 0.0 0.0 0.00 0.00 0.00 91 1012.2
20260906110059 82 178 0.0 0.0 0.00 0.00 0.00 91 1012.5
20260906110000 82 178 0.0 0.0 0.00 0.00 0.00 91 1012.4
20260906104559 82 178 0.0 0.0 0.00 0.00 0.00 91 1012.4
20260906103100 82 178 0.0 0.0 0.00 0.00 0.00 91 1012.3
20260906101600 82 178 0.0 0.0 0.00 0.00 0.00 91 1012.4
20260906100059 82 178 0.0 0.0 0.00 0.00 0.00 91 1012.3
20260906100005 82 178 0.0 0.0 0.00 0.00 0.00 91 1012.3
20260906094559 82 178 0.0 0.0 0.00 0.00 0.00 91 1011.8
20260906093059 82 178 0.0 0.0 0.00 0.00 0.00 91 1011.8
20260906091600 82 178 0.0 0.0 0.00 0.00 0.00 91 1011.6
20260906090059 82 178 0.0 0.0 0.00 0.00 0.00 91 1011.8
20260906090002 82 178 0.0 0.0 0.00 0.00 0.00 91 1011.8
20260906084601 82 178 0.0 2.0 0.00 0.00 0.00 91 1011.8
20260906083102 82 178 0.0 2.0 0.00 0.00 0.00 91 1011.8
20260906081559 82 178 0.0 2.0 0.00 0.00 0.00 90 1011.8
20260906074559 82 178 0.0 0.0 0.00 0.00 0.00 90 1011.9
20260906073100 83 178 1.0 4.0 0.00 0.00 0.00 90 1011.9
20260906071600 83 176 1.0 3.0 0.00 0.00 0.00 90 1012.3
20260906070058 83 176 0.0 4.0 0.00 0.00 0.00 90 1012.4
20260906064559 83 173 1.0 3.0 0.00 0.00 0.00 90 1012.6
20260906063100 83 173 0.0 4.0 0.00 0.00 0.00 90 1012.6
20260906061615 83 163 1.0 3.0 0.00 0.00 0.00 90 1012.5
20260906060100 83 169 0.0 3.0 0.00 0.00 0.00 89 1012.4
20260906054557 83 169 0.0 4.0 0.00 0.00 0.00 89 1012.3
20260906053055 83 180 1.0 4.0 0.00 0.00 0.00 89 1012.4
20260906051605 84 184 0.0 4.0 0.00 0.00 0.00 89 1012.6
20260906050059 84 187 1.0 4.0 0.00 0.00 0.00 88 1012.5
20260906044559 84 205 0.0 3.0 0.00 0.00 0.00 88 1012.6
20260906043106 84 171 1.0 3.0 0.00 0.00 0.00 88 1012.7
20260906041559 84 184 0.0 3.0 0.00 0.00 0.00 87 1012.7
20260906040059 84 157 0.0 2.0 0.00 0.00 0.00 87 1012.8
20260906034605 84 170 0.0 1.0 0.00 0.00 0.00 87 1012.7
20260906033100 85 170 0.0 0.0 0.00 0.00 0.00 86 1012.8
20260906031600 85 170 0.0 3.0 0.00 0.00 0.00 86 1012.6
20260906030058 85 173 0.0 3.0 0.00 0.00 0.00 86 1012.4
20260906024558 85 173 0.0 1.0 0.00 0.00 0.00 85 1012.4
20260906023107 86 55 0.0 3.0 0.00 0.00 0.00 84 1011.9
20260906021559 86 94 0.0 2.0 0.00 0.00 0.00 83 1011.7
20260906020101 86 80 0.0 2.0 0.00 0.00 0.00 83 1011.3
20260906014605 87 82 0.0 4.0 0.00 0.00 0.00 83 1011.3
20260906013058 87 34 0.0 2.0 0.00 0.00 0.00 82 1011.3
20260906011605 88 32 0.0 3.0 0.00 0.00 0.00 81 1011.2
20260906010058 88 157 0.0 1.0 0.00 0.00 0.00 78 1011.1
20260906004557 88 136 0.0 0.0 0.00 0.00 0.00 78 1011.0
20260906003058 88 136 0.0 2.0 0.00 0.00 0.00 77 1011.1
20260906001558 89 137 0.0 3.0 0.00 0.00 0.00 76 1011.3
20260906000057 89 169 0.0 2.0 0.00 0.00 0.00 77 1011.4
20260905233109 90 101 0.0 2.0 0.00 0.00 0.00 76 1011.6
20260905231557 90 62 0.0 2.0 0.00 0.00 0.00 78 1011.4
20260905230056 89 49 0.0 5.0 0.00 0.00 0.00 77 1011.5
20260905224601 88 71 0.0 1.0 0.00 0.00 0.00 78 1011.2
20260905223057 88 71 0.0 1.0 0.00 0.00 0.00 80 1011.1
20260905221602 87 71 0.0 1.0 0.00 0.00 0.00 81 1011.2
20260905220056 87 71 0.0 1.0 0.00 0.00 0.00 80 1011.2
20260905214558 87 71 0.0 3.0 0.00 0.00 0.00 79 1011.3
20260905213100 89 40 1.0 11.0 0.00 0.00 0.00 76 1011.7
20260905211608 90 62 1.0 6.0 0.00 0.00 0.00 72 1011.9
20260905210111 92 142 2.0 9.0 0.00 0.00 0.00 70 1011.9
20260905204559 94 161 2.0 10.0 0.00 0.00 0.00 69 1011.3